Location: Cedar Springs
(43.2230°N, 85.5510°W)
Time: 06:58:35
(UTC-04:00)

Cosmos 2278 Rocket - Visible Passes

Search period start: 25 April 2015 00:00
Search period end: 05 May 2015 00:00
Orbit: 840 x 847 km, 71.0° (Epoch: 24 April)

Date Brightness Start Highest point End Pass type
(mag) Time Alt. Az. Time Alt. Az. Time Alt. Az.
25 Apr 4.3 05:33:33 10° N 05:38:31 31° NE 05:43:32 10° ESE visible
25 Apr 4.4 22:10:46 10° WSW 22:15:38 28° NW 22:20:28 10° N visible
26 Apr 4.3 05:19:04 10° N 05:23:59 30° NE 05:28:56 10° ESE visible
26 Apr 4.4 21:56:11 10° WSW 22:01:07 29° NW 22:05:59 10° N visible
27 Apr 4.4 05:04:37 10° N 05:09:28 29° NE 05:14:22 10° ESE visible
27 Apr 4.4 21:41:37 10° WSW 21:46:35 30° NW 21:51:32 10° N visible
28 Apr 4.4 04:50:10 10° N 04:54:56 28° NE 04:59:47 10° ESE visible
28 Apr 4.4 21:27:03 10° WSW 21:32:04 31° NW 21:37:04 10° N visible
29 Apr 4.4 04:35:42 10° N 04:40:25 27° NE 04:45:12 10° ESE visible
29 Apr 4.3 21:12:28 10° WSW 21:17:33 32° NW 21:22:36 10° N visible
30 Apr 4.4 04:21:14 10° N 04:25:53 26° NE 04:30:37 10° ESE visible
30 Apr 2.3 06:04:50 10° NNW 06:10:21 53° WSW 06:15:49 10° S visible
01 May 4.5 04:06:47 10° N 04:11:22 25° NE 04:16:01 10° ESE visible
01 May 2.3 05:50:20 10° NNW 05:55:52 56° WSW 06:01:21 10° S visible
02 May 4.5 03:52:20 10° N 03:56:50 24° NE 04:01:26 10° ESE visible
02 May 2.2 05:35:49 10° NNW 05:41:23 58° WSW 05:46:54 10° S visible
03 May 4.5 03:37:52 10° N 03:42:18 23° NE 03:46:50 10° ESE visible
03 May 2.2 05:21:18 10° NNW 05:26:54 61° WSW 05:32:26 10° S visible
04 May 4.5 03:23:25 10° N 03:27:47 23° NE 03:32:14 10° ESE visible
04 May 2.2 05:06:48 10° NNW 05:12:24 63° WSW 05:17:58 10° S visible
